CFG34N LOWW-EDDF

Flight info

Callsign CFG34N
Flight time N/A
Altitude 34000
Route BUWUT1D BUWUT DCT DITIS DCT RAPET T170 GAPLA/N0399F240 T178 KERAX KERAX5A
Aircraft A321/M-V/N

Departure

Time 2026-04-25 13:21
Airport Vienna International Airport (LOWW)

Arrival

Time N/A
Airport Frankfurt Main Airport (EDDF)
Time Latitude Longitude Altitude Speed Heading
2026-04-25 13:11 48.11670 16.56894 610 ft 0 kts 24°
2026-04-25 13:13 48.11660 16.56887 610 ft 3 kts 24°
2026-04-25 13:14 48.11643 16.56876 613 ft 3 kts 24°
2026-04-25 13:14 48.11632 16.56868 617 ft 3 kts 24°
2026-04-25 13:14 48.11615 16.56843 621 ft 3 kts 84°
2026-04-25 13:14 48.11613 16.56816 620 ft 2 kts 111°
2026-04-25 13:15 48.11614 16.56815 620 ft 0 kts 111°
2026-04-25 13:17 48.11614 16.56816 620 ft 0 kts 111°
2026-04-25 13:17 48.11605 16.56839 615 ft 4 kts 116°
2026-04-25 13:17 48.11581 16.56895 623 ft 6 kts 136°
2026-04-25 13:17 48.11553 16.56913 614 ft 6 kts 168°
2026-04-25 13:18 48.11517 16.56912 610 ft 5 kts 196°
2026-04-25 13:18 48.11492 16.56892 610 ft 4 kts 208°
2026-04-25 13:18 48.11457 16.56867 619 ft 10 kts 205°
2026-04-25 13:18 48.11388 16.56818 612 ft 12 kts 205°
2026-04-25 13:19 48.11319 16.56763 621 ft 11 kts 216°
2026-04-25 13:19 48.11299 16.56681 621 ft 6 kts 277°
2026-04-25 13:19 48.11296 16.56615 622 ft 6 kts 259°
2026-04-25 13:19 48.11291 16.56574 614 ft 6 kts 262°
2026-04-25 13:20 48.11290 16.56415 610 ft 20 kts 279°
2026-04-25 13:20 48.11368 16.56134 614 ft 53 kts 296°
2026-04-25 13:20 48.11645 16.55283 612 ft 116 kts 295°
2026-04-25 13:20 48.12034 16.54081 643 ft 155 kts 297°
2026-04-25 13:21 48.12448 16.52580 1102 ft 158 kts 279°
2026-04-25 13:21 48.12229 16.50830 1654 ft 168 kts 249°
2026-04-25 13:21 48.11774 16.49243 2107 ft 176 kts 253°
2026-04-25 13:21 48.11559 16.47353 2364 ft 188 kts 272°
2026-04-25 13:22 48.11666 16.45686 2681 ft 194 kts 286°
2026-04-25 13:22 48.11966 16.43589 2930 ft 213 kts 286°